TimeCST,TemperatureF,Dew PointF,Humidity,Sea Level PressureIn,VisibilityMPH,Wind Direction,Wind SpeedMPH,Gust SpeedMPH,PrecipitationIn,Events,Conditions,WindDirDegrees,DateUTC
12:12 AM,26.6,21.2,80,30.24,10.0,North,12.7,17.3,N/A,,Overcast,360,2013-03-02 06:12:00
12:13 AM,26.6,21.2,80,30.24,10.0,North,11.5,17.3,N/A,,Overcast,350,2013-03-02 06:13:00
12:15 AM,26.6,21.2,80,30.24,10.0,North,10.4,17.3,N/A,,Overcast,350,2013-03-02 06:15:00
12:16 AM,26.6,21.2,80,30.24,10.0,North,9.2,17.3,N/A,,Overcast,350,2013-03-02 06:16:00
12:31 AM,26.6,21.2,80,30.24,10.0,North,10.4,-,N/A,,Overcast,350,2013-03-02 06:31:00
12:45 AM,26.6,21.2,80,30.24,10.0,NNW,9.2,-,N/A,,Overcast,340,2013-03-02 06:45:00
12:48 AM,24.8,21.2,86,30.24,10.0,North,9.2,-,N/A,,Overcast,350,2013-03-02 06:48:00
12:55 AM,25.5,21.6,85,30.24,10.0,North,10.4,-,0.00,,Overcast,350,2013-03-02 06:55:00
1:11 AM,24.8,21.2,86,30.24,10.0,North,11.5,-,N/A,,Overcast,350,2013-03-02 07:11:00
1:38 AM,24.8,21.2,86,30.25,10.0,NNW,11.5,-,N/A,,Overcast,340,2013-03-02 07:38:00
1:43 AM,24.8,21.2,86,30.25,10.0,NNW,10.4,-,N/A,,Overcast,340,2013-03-02 07:43:00
1:47 AM,24.8,21.2,86,30.25,10.0,NNW,9.2,-,N/A,,Overcast,340,2013-03-02 07:47:00
1:48 AM,24.8,21.2,86,30.25,10.0,NNW,9.2,-,N/A,,Overcast,340,2013-03-02 07:48:00
1:50 AM,24.8,21.2,86,30.25,10.0,NNW,11.5,-,N/A,,Overcast,340,2013-03-02 07:50:00
1:51 AM,24.8,21.2,86,30.25,10.0,NNW,10.4,-,N/A,,Overcast,330,2013-03-02 07:51:00
1:53 AM,24.8,21.2,86,30.25,10.0,NNW,9.2,-,N/A,,Overcast,330,2013-03-02 07:53:00
1:55 AM,25.0,21.0,85,30.25,10.0,NNW,9.2,-,0.00,,Overcast,340,2013-03-02 07:55:00
2:11 AM,24.8,21.2,86,30.25,10.0,NNW,11.5,-,N/A,Snow,Light Snow,330,2013-03-02 08:11:00
2:13 AM,24.8,21.2,86,30.25,10.0,NNW,10.4,-,N/A,,Overcast,340,2013-03-02 08:13:00
2:16 AM,24.8,21.2,86,30.25,10.0,NNW,10.4,-,N/A,,Overcast,330,2013-03-02 08:16:00
2:18 AM,24.8,21.2,86,30.25,10.0,NNW,11.5,-,N/A,,Overcast,330,2013-03-02 08:18:00
2:20 AM,24.8,21.2,86,30.25,10.0,NNW,11.5,-,N/A,,Overcast,340,2013-03-02 08:20:00
2:25 AM,24.8,21.2,86,30.24,10.0,NNW,8.1,-,N/A,,Overcast,340,2013-03-02 08:25:00
2:29 AM,24.8,21.2,86,30.25,10.0,NNW,6.9,-,N/A,,Overcast,340,2013-03-02 08:29:00
2:31 AM,24.8,21.2,86,30.25,10.0,NNW,9.2,-,N/A,,Overcast,330,2013-03-02 08:31:00
2:32 AM,24.8,21.2,86,30.24,10.0,NNW,9.2,-,N/A,,Overcast,330,2013-03-02 08:32:00
2:43 AM,24.8,21.2,86,30.24,10.0,NNW,10.4,-,N/A,,Overcast,330,2013-03-02 08:43:00
2:45 AM,24.8,21.2,86,30.25,10.0,NNW,10.4,-,N/A,,Overcast,330,2013-03-02 08:45:00
2:46 AM,24.8,21.2,86,30.25,10.0,NNW,9.2,-,N/A,,Overcast,330,2013-03-02 08:46:00
2:55 AM,24.6,20.7,85,30.24,10.0,NNW,12.7,-,0.00,,Overcast,340,2013-03-02 08:55:00
2:56 AM,24.8,21.2,86,30.24,10.0,NNW,11.5,-,N/A,,Overcast,340,2013-03-02 08:56:00
3:05 AM,24.8,21.2,86,30.24,10.0,NNW,9.2,-,N/A,,Overcast,330,2013-03-02 09:05:00
3:07 AM,24.8,21.2,86,30.24,10.0,NNW,10.4,-,N/A,Snow,Light Snow,330,2013-03-02 09:07:00
3:09 AM,24.8,21.2,86,30.24,10.0,NNW,8.1,-,N/A,,Overcast,340,2013-03-02 09:09:00
3:17 AM,24.8,21.2,86,30.24,10.0,NNW,8.1,-,N/A,,Overcast,330,2013-03-02 09:17:00
3:21 AM,24.8,21.2,86,30.24,10.0,NNW,9.2,-,N/A,,Overcast,330,2013-03-02 09:21:00
3:47 AM,24.8,21.2,86,30.24,10.0,NW,9.2,-,N/A,Snow,Light Snow,320,2013-03-02 09:47:00
3:49 AM,24.8,21.2,86,30.24,10.0,NW,9.2,-,N/A,Snow,Light Snow,320,2013-03-02 09:49:00
3:51 AM,24.8,21.2,86,30.24,10.0,NW,10.4,-,N/A,Snow,Light Snow,320,2013-03-02 09:51:00
3:53 AM,24.8,21.2,86,30.24,10.0,NW,10.4,-,N/A,Snow,Light Snow,320,2013-03-02 09:53:00
3:55 AM,23.9,21.0,89,30.24,10.0,NW,6.9,-,0.00,Snow,Light Snow,310,2013-03-02 09:55:00
3:57 AM,23.0,21.2,93,30.24,10.0,NW,8.1,-,N/A,Snow,Light Snow,310,2013-03-02 09:57:00
4:06 AM,23.0,21.2,93,30.24,10.0,NW,9.2,-,N/A,,Overcast,320,2013-03-02 10:06:00
4:11 AM,23.0,21.2,93,30.24,10.0,NW,10.4,-,N/A,,Overcast,320,2013-03-02 10:11:00
4:18 AM,23.0,19.4,86,30.24,10.0,NW,10.4,-,N/A,,Overcast,320,2013-03-02 10:18:00
4:37 AM,23.0,19.4,86,30.25,10.0,NW,11.5,-,N/A,,Overcast,320,2013-03-02 10:37:00
4:55 AM,23.0,19.4,86,30.25,10.0,NNW,12.7,-,0.00,,Overcast,330,2013-03-02 10:55:00
5:05 AM,23.0,19.4,86,30.25,10.0,NNW,12.7,-,N/A,,Overcast,330,2013-03-02 11:05:00
5:14 AM,23.0,19.4,86,30.25,10.0,NNW,9.2,-,N/A,,Overcast,330,2013-03-02 11:14:00
5:55 AM,22.1,20.1,92,30.26,10.0,NW,9.2,-,0.00,Snow,Light Snow,320,2013-03-02 11:55:00
6:55 AM,22.8,21.0,93,30.28,7.0,NW,9.2,-,0.00,Snow,Light Snow,310,2013-03-02 12:55:00
7:12 AM,23.0,21.2,93,30.29,7.0,NW,10.4,-,N/A,Snow,Light Snow,320,2013-03-02 13:12:00
7:55 AM,23.0,20.8,91,30.30,7.0,NW,9.2,-,0.00,Snow,Light Snow,320,2013-03-02 13:55:00
8:55 AM,24.1,21.0,88,30.30,10.0,NNW,10.4,-,0.00,Snow,Light Snow,330,2013-03-02 14:55:00
9:55 AM,25.0,20.8,84,30.31,10.0,NNW,11.5,-,0.00,Snow,Light Snow,340,2013-03-02 15:55:00
10:19 AM,24.8,21.2,86,30.31,8.0,NW,9.2,-,N/A,Snow,Light Snow,320,2013-03-02 16:19:00
10:20 AM,24.8,21.2,86,30.31,8.0,NW,8.1,-,N/A,Snow,Light Snow,320,2013-03-02 16:20:00
10:34 AM,24.8,21.2,86,30.31,10.0,NW,11.5,-,N/A,,Overcast,320,2013-03-02 16:34:00
10:51 AM,26.6,21.2,80,30.31,10.0,NW,8.1,-,N/A,,Overcast,310,2013-03-02 16:51:00
10:55 AM,26.1,20.1,78,30.31,10.0,NW,10.4,-,0.00,,Overcast,310,2013-03-02 16:55:00
11:55 AM,26.4,19.4,75,30.31,10.0,NNW,10.4,-,0.00,Snow,Light Snow,340,2013-03-02 17:55:00
12:36 PM,28.4,17.6,64,30.30,10.0,NW,11.5,-,N/A,,Overcast,310,2013-03-02 18:36:00
12:39 PM,28.4,17.6,64,30.29,10.0,NNW,9.2,-,N/A,,Overcast,330,2013-03-02 18:39:00
12:55 PM,28.6,17.8,64,30.28,10.0,NW,11.5,-,0.00,,Overcast,320,2013-03-02 18:55:00
1:03 PM,28.4,17.6,64,30.28,10.0,North,12.7,-,N/A,,Mostly Cloudy,350,2013-03-02 19:03:00
1:06 PM,28.4,17.6,64,30.28,10.0,NNW,9.2,-,N/A,,Overcast,340,2013-03-02 19:06:00
1:16 PM,30.2,17.6,60,30.28,10.0,NNW,10.4,-,N/A,,Overcast,330,2013-03-02 19:16:00
1:55 PM,30.0,18.0,61,30.27,10.0,NNW,9.2,-,N/A,,Scattered Clouds,330,2013-03-02 19:55:00
2:55 PM,31.1,17.2,57,30.26,10.0,NW,12.7,18.4,N/A,,Partly Cloudy,310,2013-03-02 20:55:00
3:55 PM,31.3,17.2,56,30.25,10.0,NW,11.5,17.3,N/A,,Clear,320,2013-03-02 21:55:00
4:55 PM,30.7,17.8,59,30.26,10.0,NNW,11.5,-,N/A,,Clear,340,2013-03-02 22:55:00
5:55 PM,28.8,17.6,63,30.27,10.0,NNW,6.9,-,N/A,,Clear,330,2013-03-02 23:55:00
6:55 PM,25.0,16.7,71,30.27,10.0,NNW,5.8,-,N/A,,Clear,340,2013-03-03 00:55:00
7:55 PM,24.4,16.3,71,30.27,10.0,Calm,Calm,-,N/A,,Clear,0,2013-03-03 01:55:00
8:55 PM,22.6,16.0,76,30.27,10.0,NNW,4.6,-,N/A,,Clear,330,2013-03-03 02:55:00
9:55 PM,21.6,16.3,80,30.26,10.0,Calm,Calm,-,N/A,,Clear,0,2013-03-03 03:55:00
10:55 PM,19.2,16.0,87,30.25,10.0,Calm,Calm,-,N/A,,Clear,0,2013-03-03 04:55:00
11:55 PM,19.8,17.4,91,30.24,10.0,Calm,Calm,-,N/A,,Clear,0,2013-03-03 05:55:00